Regional Weather Roundup
Issued by NWS

Home | Current Version | Previous Version | Text Only | Print | Product List | Glossary On
Versions: 1 2 3 4 5 6 7 8 9 10 11 12 13 14 15 16 17 18 19 20 21 22 23 24 25 26 27
000
ASUS45 KBOU 110607
RWRCO

WEATHER ROUNDUP FOR COLORADO
NATIONAL WEATHER SERVICE DENVER/BOULDER CO
1100 PM MST SAT DEC 10 2016

NOTE: "FAIR" INDICATES FEW OR NO CLOUDS BELOW 12000 FEET WITH NO
SIGNIFICANT WEATHER AND/OR OBSTRUCTIONS TO VISIBILITY.

COZ001>005-013-030-031-110700-
...NORTHWEST COLORADO...

CITY           SKY/WX    TMP DP  RH WIND       PRES   REMARKS
CRAIG          LGT SNOW  33  31  92 W3        29.86R VSB 1
HAYDEN         CLOUDY    32  28  86 W9        29.84R VSB 3/4 WCI  24
MEEKER         LGT RAIN  41  28  60 W18G29    29.83F
MOUNT WERNER   NOT AVBL
STEAMBOAT SPGS CLOUDY    32  32  99 W5        29.83R WCI  27
WALDEN           N/A     32  30  93 SW6       29.81S WCI  26
$$

COZ006>008-011-110700-
...WEST CENTRAL VALLEYS...

CITY           SKY/WX    TMP DP  RH WIND       PRES   REMARKS
GRAND JUNCTION CLOUDY    29  25  85 CALM      29.91S
MONTROSE       CLOUDY    34  27  75 NW3       29.93R
EAGLE          CLOUDY    34  32  92 SE3       29.86S
RIFLE          CLOUDY    30  26  85 CALM      29.90R
DELTA          NOT AVBL
NUCLA          CLOUDY    45  28  53 CALM      29.98S
$$

COZ017>023-064>068-110700-
...SOUTHWEST COLORADO...

CITY           SKY/WX    TMP DP  RH WIND       PRES   REMARKS
DURANGO        FAIR      27  21  78 N3        30.03F
CORTEZ         MOCLDY    30  26  85 E3        30.03S
PAGOSA SPRINGS FAIR      27  24  86 CALM      30.06S
TELLURIDE      CLOUDY    38  25  59 CALM      30.05R
WOLF CREEK PAS CLOUDY    21  21 100 S23G36    30.13S WCI   5
$$

COZ009-010-012-014-032>034-037-058>063-110700-
...CENTRAL COLORADO...

CITY           SKY/WX    TMP DP  RH WIND       PRES   REMARKS
ASPEN          CLOUDY    34  31  88 SW6       29.85R WCI  29
BUENA VISTA    FAIR      40  24  52 SW22G32   29.85F
COPPER MTN     NOT AVBL
BERTHOUD PASS  LGT SNOW  21  10  63 MISG      29.86F VSB 1
COTTONWOOD PAS CLOUDY    36  27  69 W14G25    29.91R
GUNNISON       FAIR      27  23  85 CALM      29.96S
KREMMLING      LGT RAIN  41  32  70 SW12      29.81R
LEADVILLE      CLOUDY    30  23  75 SE9       29.88F WCI  22
MONARCH PASS   CLOUDY    21  19  93 SW26G36   30.09R WCI   4
SALIDA         FAIR      43  22  44 SW14G21   29.95S
SUNLIGHT       LGT SNOW  25  23  93 SW28G41   29.92S WCI   8
WILKERSON PASS FAIR      27  21  80 SW16G24   29.93S WCI  14
$$

COZ069>075-110700-
...SAN LUIS VALLEY/SANGRE DE CRISTO MOUNTAINS...

CITY           SKY/WX    TMP DP  RH WIND       PRES   REMARKS
ALAMOSA        FAIR      32  19  58 CALM      29.96S
LA VETA PASS   FAIR      32  19  59 NE30G55   29.92S WCI  18
SAGUACHE       FAIR      27  19  74 NE3       29.97S
$$

COZ035-036-038>040-110700-
...NORTHERN COLORADO FRONT RANGE...

CITY           SKY/WX    TMP DP  RH WIND       PRES   REMARKS
DENVER INTL AP MOCLDY    37  26  64 S14       29.68S
DMNS CITY PARK   N/A     41  27  58 E7        29.67S
AURORA         NOT AVBL
FRONT RANGE AP FAIR      36  30  80 SE9       29.70S
ERIE MUNI ARPT FAIR      44  29  56 CALM      29.69R
BOULDER MUN AP FAIR      46  30  53 SE8       29.68R
CENTENNIAL     MOCLDY    42  27  55 S9        29.69S
BROOMFIELD     FAIR      45  28  53 CALM      29.68S
FORT COLLINS   FAIR      28  23  80 N5        29.71R WCI  23
LONGMONT       NOT AVBL
$$

COZ041-046-047-076>085-087-088-110700-
...PIKES PEAK/PALMER DIVIDE AND SOUTHERN FOOTHILLS...

CITY           SKY/WX    TMP DP  RH WIND       PRES   REMARKS
COLO. SPRINGS  MOCLDY    45  23  42 E9        29.72S
A. F. ACADEMY  FAIR      51  24  33 W35G52    29.67F
SCHRIEVER AFB  NOT AVBL
ELLICOTT       LGT RAIN N/A N/A N/A E9        29.71R
FALCON         FAIR      50  22  32 W18G29    29.74F
FORT CARSON    NOT AVBL
LIMON          FAIR      27  21  78 N6        29.71F WCI  20
MONUMENT HILL  FAIR      37  23  56 W10G16    29.75F
TRINIDAD       FAIR      46  11  24 S5        29.75S
$$

COZ042>045-048>051-090-091-110700-
...NORTHEAST COLORADO...

CITY           SKY/WX    TMP DP  RH WIND       PRES   REMARKS
GREELEY ARPT   FAIR      20  17  88 NW6       29.72R WCI  12
AKRON          MOCLDY    36  25  64 W12       29.68F
BURLINGTON     FAIR      28  20  71 W10       29.68F WCI  19
WRAY           NOT AVBL
STERLING       MOCLDY    28  27  93 S8        29.66S WCI  20
HOLYOKE        FAIR      32  28  86 W8        29.66S WCI  25
FORT MORGAN    FAIR      32  25  76 W6        29.70S WCI  26
$$

COZ086-089-092>099-110700-
...SOUTHEAST COLORADO...

CITY           SKY/WX    TMP DP  RH WIND       PRES   REMARKS
PUEBLO         FAIR      50  24  36 NW15      29.68S
LA JUNTA       FAIR      40  20  44 W14       29.69S
LAMAR          FAIR      25  19  78 N3        29.67S
SPRINGFIELD      N/A     46  14  27 W14       29.69S
$$




USA.gov is the U.S. government's official web portal to all federal, state and local government web resources and services.